Regional Weather Roundup
Issued by NWS Sioux Falls, SD

Home | Current Version | Previous Version | Text Only | Print | Product List | Glossary Off
Versions: 1 2 3 4 5 6 7 8 9 10 11 12 13 14 15 16 17 18 19 20 21 22 23 24 25 26 27 28 29 30 31 32 33 34 35 36 37 38 39 40 41 42 43 44 45 46 47 48 49 50

000
ASUS43 KFSD 280810
RWRFSD

WEATHER ROUNDUP FOR SE SOUTH DAKOTA/SW MINNESOTA/NW IOWA
NATIONAL WEATHER SERVICE SIOUX FALLS SD
200 AM CST SAT FEB 28 2015

NOTE: "FAIR" INDICATES FEW OR NO CLOUDS BELOW 12,000 FEET WITH NO
SIGNIFICANT WEATHER AND OR OBSTRUCTIONS TO VISIBILITY.


SDZ038>040-050-052>070-280900-
SOUTHEAST SOUTH DAKOTA

CITY           SKY/WX    TMP DP  RH WIND       PRES   REMARKS
CHAMBERLAIN    CLEAR     11  -1  59 S13       30.26S WCI  -4
HURON          CLEAR      7   0  73 S12       30.32F WCI  -8
MADISON        FAIR       1   0  92 S12       30.35S WCI -15
MITCHELL       CLEAR      9   2  73 S14       30.35F WCI  -7
SIOUX FALLS    CLEAR      5  -2  72 S9        30.40F WCI  -9
WINNER         FAIR      14  -1  51 S14       30.21S WCI  -1
YANKTON        CLEAR      7   0  72 S6        30.42S WCI  -3
$$

MNZ071-072-080-081-089-090-097-098-280900-
SOUTHWEST MINNESOTA

CITY           SKY/WX    TMP DP  RH WIND       PRES   REMARKS
FAIRMONT       PTCLDY    -8 N/A N/A S7        30.48S WCI -22
JACKSON        PTCLDY     1  -6  71 S9        30.45S WCI -14
LUVERNE        CLEAR     -2  -8  78 S3        30.43S
MARSHALL       CLEAR      3  -6  66 S12       30.43R WCI -13
MONTEVIDEO     CLEAR      0  -4  85 S7        30.44S WCI -13
PIPESTONE      CLEAR     -2  -8  78 S9        30.38S WCI -18
REDWOOD FALLS  CLEAR     -3  -9  75 S8        30.46F WCI -18
TRACY          CLEAR      4  -3  73 S9        30.42S WCI -11
WINDOM         CLEAR      0  -6  78 CALM      30.44S
WORTHINGTON    CLEAR     21 -11  23 S10       30.43F WCI  10
$$

IAZ001>003-012>014-020>022-031-032-NEZ013-014-SDZ071-280900-
NORTHWEST IOWA

CITY           SKY/WX    TMP DP  RH WIND       PRES   REMARKS
CHEROKEE       CLEAR     -2  -6  86 S3        30.48S
DENISON        CLEAR      5  -2  72 CALM      30.47S
ESTHERVILLE    PTCLDY    -9 -12  87 S9        30.48S WCI -26
LE MARS        CLEAR      0  -4  85 CALM      30.47F
ORANGE CITY    CLEAR      3  -2  78 SE6       30.44S WCI  -8
SHELDON        CLEAR     -2  -8  78 S6        30.44S WCI -14
SIOUX CITY     CLEAR      2  -3  80 E6        30.48S WCI  -9
SPENCER        CLEAR     -1  -7  75 S13       30.47S WCI -19
STORM LAKE     CLEAR     -2  -8  78 S10       30.47S WCI -19
$$

ABBREVIATIONS USED IN REMARKS
   TC - TEMPERATURE IN CELSIUS
  WCI - WIND CHILL INDEX
   HX - HEAT INDEX
  VSB - VISIBILITY



USA.gov is the U.S. government's official web portal to all federal, state and local government web resources and services.